カタログに戻る

THOR AGENA B DEB

運用中PO
NORAD 511·DEBRIS·🇺🇸 United States

打ち上げ Sep 29, 1962 から Vandenberg Space Force Base

Loading…

次のパス (今後24時間)

TLE

最新Source: Space-Track

元期: Sep 14, 2026, 07:41 UTC

1 00511U 62049D   26257.32060480  .00000058  00000-0  56287-4 0  9998
2 00511  80.4249 103.4989 0032077 106.8270  13.0376 13.68575738191771

AllMySatでTHOR AGENA B DEBをリアルタイム追跡

Download on the App Store